Weather History for Louisville, KY

Change the Weather History Date:

Friday, December 12, 2014

  Actual Average Record
Temperature  
Mean Temperature 35 °F 38 °F  
Max Temperature 45 °F 46 °F 68 °F (2007)
Min Temperature 25 °F 31 °F -3 °F (1962)
Degree Days  
Heating Degree Days 30 27  
Month to date heating degree days 275 298  
Since 1 July heating degree days 1161 1033  
Cooling Degree Days 0 0  
Month to date cooling degree days 0 0  
Year to date cooling degree days 1626 1613  
Moisture  
Dew Point 28 °F    
Average Humidity 71    
Maximum Humidity 92    
Minimum Humidity 49    
Precipitation  
Precipitation 0.00 in 0.13 in 1.85 in (1873)
Month to date precipitation 2.59 1.52  
Year to date precipitation 42.29 42.60  
Snow  
Snow 0.00 in 0.10 in 2.40 in (2010)
Month to date snowfall 0.0 0.7  
Since 1 July snowfall 3.7 0.9  
Snow Depth 0.00 in    
Sea Level Pressure  
Sea Level Pressure 30.36 in    
Wind  
Wind Speed 6 mph (West)    
Max Wind Speed 13 mph    
Max Gust Speed 17 mph    
Visibility 7 miles    
Events      
T = Trace of Precipitation, MM = Missing Value Source: NWS Daily Summary

Daily Weather History Graph

Daily Weather History Graph

Search for Another Location

Airport:

Trip Planner

Search our weather history database for the weather conditions in past years. The results will help you decide how hot, cold, wet, or windy it might be!

Date:

Astronomy

Dec. 12, 2014 Rise Set
Actual Time 7:50 AM EST 5:23 PM EST
Civil Twilight 7:20 AM EST 5:52 PM EST
Nautical Twilight 6:47 AM EST 6:25 PM EST
Astronomical Twilight 6:15 AM EST 6:57 PM EST
Moon 11:24 PM EST (12/12) 11:47 AM EST (12/12)
Length of Visible Light 10h 32m
Length of Day
9h 33m
Waning Gibbous, 67% of the Moon is Illuminated
Dec 12
Waning Gibbous
Dec 14
Last Quarter
Dec 21
New
Dec 28
First Quarter
Jan 4
Full

Hourly Weather History & Observations

Time (EST) Temp. Windchill Dew Point Humidity Pressure Visibility Wind Dir Wind Speed Gust Speed Precip Events Conditions
12:56 AM 30.0 °F 24.1 °F 24.1 °F 79% 30.32 in 8.0 mi WNW 5.8 mph - N/A   Clear
1:56 AM 28.9 °F 23.9 °F 24.1 °F 82% 30.32 in 7.0 mi West 4.6 mph - N/A   Clear
2:56 AM 28.9 °F 22.8 °F 24.1 °F 82% 30.33 in 7.0 mi West 5.8 mph - N/A   Clear
3:56 AM 28.9 °F 21.9 °F 24.1 °F 82% 30.33 in 7.0 mi WSW 6.9 mph - N/A   Clear
4:56 AM 28.9 °F 22.8 °F 24.1 °F 82% 30.34 in 7.0 mi West 5.8 mph - N/A   Clear
5:56 AM 28.0 °F 24.2 °F 24.1 °F 85% 30.35 in 6.0 mi WSW 3.5 mph - N/A   Clear
6:56 AM 27.0 °F 23.0 °F 23.0 °F 85% 30.38 in 5.0 mi West 3.5 mph - N/A   Clear
7:56 AM 26.1 °F 18.4 °F 23.0 °F 88% 30.41 in 3.0 mi West 6.9 mph - N/A   Clear
8:56 AM 28.9 °F 22.8 °F 26.1 °F 89% 30.42 in 4.0 mi West 5.8 mph - N/A   Clear
9:56 AM 32.0 °F 27.5 °F 27.0 °F 82% 30.42 in 4.0 mi West 4.6 mph - N/A   Haze
10:56 AM 35.1 °F 28.6 °F 27.0 °F 72% 30.42 in 5.0 mi West 8.1 mph - N/A   Haze
11:56 AM 37.9 °F 33.5 °F 27.0 °F 65% 30.40 in 5.0 mi WSW 5.8 mph - N/A   Haze
12:56 PM 41.0 °F 38.0 °F 26.1 °F 55% 30.36 in 7.0 mi Variable 4.6 mph - N/A   Scattered Clouds
1:56 PM 43.0 °F 38.2 °F 27.0 °F 53% 30.35 in 8.0 mi West 8.1 mph - N/A   Partly Cloudy
2:56 PM 44.1 °F 40.1 °F 27.0 °F 51% 30.34 in 8.0 mi WNW 6.9 mph - N/A   Clear
3:56 PM 44.1 °F 40.8 °F 28.0 °F 53% 30.35 in 8.0 mi WNW 5.8 mph - N/A   Partly Cloudy
4:56 PM 43.0 °F 38.8 °F 30.9 °F 62% 30.35 in 9.0 mi North 6.9 mph - N/A   Scattered Clouds
5:35 PM 41.0 °F 39.0 °F 30.0 °F 65% 30.34 in 9.0 mi WNW 3.5 mph - N/A   Mostly Cloudy
5:56 PM 42.1 °F - 32.0 °F 67% 30.35 in 10.0 mi Calm Calm - N/A   Mostly Cloudy
6:56 PM 41.0 °F - 30.9 °F 67% 30.36 in 10.0 mi Calm Calm - N/A   Overcast
7:56 PM 42.1 °F 38.4 °F 33.1 °F 70% 30.35 in 10.0 mi West 5.8 mph - N/A   Overcast
8:56 PM 42.1 °F 38.4 °F 33.1 °F 70% 30.35 in 10.0 mi West 5.8 mph - N/A   Overcast
9:56 PM 42.1 °F 37.1 °F 34.0 °F 73% 30.34 in 10.0 mi NW 8.1 mph - N/A   Overcast
10:56 PM 41.0 °F 35.8 °F 33.1 °F 73% 30.33 in 10.0 mi NW 8.1 mph - N/A   Overcast
11:56 PM 41.0 °F 37.1 °F 33.1 °F 73% 30.33 in 9.0 mi WNW 5.8 mph - N/A   Overcast